Location: ???????
(55.3754°N, 39.3545°E)
Time: 17:32:27
(UTC+00:00)

USA 245 - Pass Details

Date: 14 April 2026
Orbit: 264 x 994 km, 97.9° (Epoch: 15 October)

Event Time Altitude Azimuth Distance (km) Brightness Sun altitude
Exits shadow 18:28:00 23° 168° (SSE) 1,319 4.8 -15.5°
Maximum altitude 18:30:42 84° 254° (WSW) 676 3.7 -15.8°
Drops below altitude 10° 18:35:49 10° 344° (NNW) 2,310 7.5 -16.3°
Sets 18:38:22 0° 345° (NNW) 3,333 8.4 -16.5°
